BMCB-36 Weather Reports


time (UTC)temp
F
wind
direction
speed
knots
gust
knots
rain 1hr
in
rain 24hr
in
rain mn
in
humidity
%
barometer
mb
20260505222049 48 0 0.0 0.0 0.07 0.29 0.03 10 1009.7
20260505221047 48 0 0.0 0.0 0.06 0.28 0.02 10 1009.7
20260505220048 48 0 0.0 0.0 0.06 0.27 0.01 10 1009.8
20260505214052 48 0 0.0 0.0 0.07 0.25 0.25 10 1009.8
20260505213051 48 0 0.0 0.0 0.06 0.24 0.24 10 1010.0
20260505212051 48 0 0.0 0.0 0.07 0.24 0.24 10 1010.0
20260505211050 48 0 0.0 0.0 0.06 0.22 0.22 10 1010.0
20260505210050 48 0 0.0 0.0 0.07 0.21 0.21 10 1010.1
20260505205049 48 0 0.0 0.0 0.07 0.20 0.20 10 1010.0
20260505204050 48 0 0.0 0.0 0.06 0.19 0.19 10 1010.1
20260505203049 48 0 0.0 0.0 0.06 0.18 0.18 10 1010.1
20260505202050 48 0 0.0 0.0 0.07 0.18 0.18 10 1010.0
20260505200048 49 0 0.0 0.0 0.06 0.16 0.16 10 1009.9
20260505195047 49 0 0.0 0.0 0.06 0.14 0.14 10 1009.9
20260505194049 49 0 0.0 0.0 0.06 0.13 0.13 10 1009.8
20260505192049 49 0 0.0 0.0 0.06 0.12 0.12 10 1009.7
20260505191049 49 0 0.0 0.0 0.06 0.11 0.11 10 1009.7
20260505190051 49 0 0.0 0.0 0.06 0.10 0.10 10 1009.7
20260505183047 49 0 0.0 0.0 0.05 0.07 0.07 10 1009.7
20260505182048 49 0 0.0 0.0 0.04 0.06 0.06 10 1009.7
20260505181048 49 0 0.0 0.0 0.04 0.06 0.06 10 1009.7
20260505180048 49 0 0.0 0.0 0.03 0.05 0.05 10 1009.7
20260505175046 49 0 0.0 0.0 0.03 0.04 0.04 10 1009.7
20260505174047 49 0 0.0 0.0 0.02 0.03 0.03 10 1009.8
20260505173049 50 0 0.0 0.0 0.02 0.03 0.03 10 1009.8
20260505172045 50 0 0.0 0.0 0.02 0.02 0.02 10 1009.8
20260505171047 50 0 0.0 0.0 0.02 0.03 0.02 10 1009.8
20260505170047 50 0 0.0 0.0 0.01 0.02 0.02 10 1009.7
20260505165049 50 0 0.0 0.0 0.01 0.02 0.02 10 1009.8
20260505164046 50 0 0.0 0.0 0.00 0.02 0.01 10 1009.8
20260505163050 50 0 0.0 0.0 0.00 0.02 0.01 10 1009.8
20260505162046 50 0 0.0 0.0 0.00 0.02 0.01 10 1009.8
20260505161049 50 0 0.0 0.0 0.00 0.02 0.01 10 1009.9
20260505153044 51 0 0.0 0.0 0.00 0.02 0.01 10 1009.9
20260505152046 51 0 0.0 0.0 0.00 0.02 0.01 10 1010.0
20260505151044 51 0 0.0 0.0 0.00 0.02 0.01 10 1010.0
20260505123045 52 0 0.0 0.0 0.00 0.09 0.00 10 1010.5
20260505122045 52 0 0.0 0.0 0.00 0.09 0.00 10 1010.6
20260505121044 52 0 0.0 0.0 0.00 0.09 0.00 10 1010.7
20260505120047 52 0 0.0 0.0 0.00 0.09 0.00 10 1010.7
20260505115046 52 0 0.0 0.0 0.00 0.09 0.00 10 1010.7
20260505114049 52 0 0.0 0.0 0.00 0.09 0.00 10 1010.7
20260505113046 53 0 0.0 0.0 0.00 0.09 0.00 10 1010.7
20260505112047 53 0 0.0 0.0 0.00 0.09 0.00 10 1010.8
20260505111048 52 0 0.0 0.0 0.00 0.09 0.00 10 1010.9
20260505101047 55 0 0.0 0.0 0.00 0.09 0.00 99 1010.9
20260505100044 55 0 0.0 0.0 0.00 0.09 0.00 98 1010.9
20260505095047 55 0 0.0 0.0 0.00 0.09 0.00 99 1010.8
20260505094046 55 0 0.0 0.0 0.00 0.09 0.00 10 1010.9
20260505091047 55 0 0.0 0.0 0.00 0.09 0.00 99 1010.9
20260505090045 55 0 0.0 0.0 0.00 0.09 0.00 98 1011.1
20260505084044 55 0 0.0 0.0 0.00 0.09 0.00 99 1011.1
20260505083046 55 0 0.0 0.0 0.00 0.09 0.00 99 1011.1
20260505082046 55 0 0.0 0.0 0.00 0.09 0.00 10 1011.2
20260505081045 54 0 0.0 0.0 0.00 0.09 0.00 10 1011.2
20260505080045 54 0 0.0 0.0 0.00 0.09 0.00 10 1011.2
20260505074046 54 0 0.0 0.0 0.00 0.09 0.00 10 1011.3
20260505073044 54 0 0.0 0.0 0.00 0.09 0.00 10 1011.3
20260505072046 53 0 0.0 0.0 0.00 0.09 0.00 10 1011.3
20260505071045 53 0 0.0 0.0 0.00 0.09 0.00 10 1011.4
20260505065045 53 0 0.0 0.0 0.00 0.09 0.00 10 1011.5
20260505064043 53 0 0.0 0.0 0.00 0.09 0.00 10 1011.5
20260505063043 53 0 0.0 0.0 0.00 0.09 0.00 10 1011.5
20260505062044 53 0 0.0 0.0 0.00 0.09 0.00 10 1011.5
20260505061044 53 0 0.0 0.0 0.00 0.09 0.00 10 1011.5
20260505060045 52 0 0.0 0.0 0.00 0.09 0.00 10 1011.7
20260505055046 52 0 0.0 0.0 0.00 0.09 0.00 10 1011.7
20260505054048 53 0 0.0 0.0 0.00 0.09 0.00 10 1011.6
20260505053043 53 0 0.0 0.0 0.00 0.09 0.00 10 1011.6
20260505052042 52 0 0.0 0.0 0.00 0.09 0.00 10 1011.6
20260505051047 52 0 0.0 0.0 0.00 0.09 0.00 10 1011.6
20260505041042 52 0 0.0 0.0 0.00 0.09 0.00 10 1011.6
20260505035046 52 0 0.0 0.0 0.00 0.09 0.00 10 1011.7
20260505034044 52 0 0.0 0.0 0.00 0.09 0.00 10 1011.7
20260505033046 52 0 0.0 0.0 0.00 0.09 0.00 10 1011.8
20260505031044 52 0 0.0 0.0 0.00 0.09 0.00 10 1012.0
20260505030044 52 0 0.0 0.0 0.00 0.09 0.00 10 1012.1
20260505025045 52 0 0.0 0.0 0.00 0.09 0.00 10 1012.1
20260505024045 52 0 0.0 0.0 0.00 0.09 0.00 10 1012.1
20260505022045 52 0 0.0 0.0 0.00 0.09 0.00 10 1012.3
20260505020047 52 0 0.0 0.0 0.00 0.09 0.00 10 1012.3
20260505013042 52 0 0.0 0.0 0.00 0.09 0.00 10 1012.3
20260505012044 53 0 0.0 0.0 0.00 0.09 0.00 10 1012.3
20260505011044 53 0 0.0 0.0 0.00 0.09 0.00 10 1012.4
20260505010045 53 0 0.0 0.0 0.00 0.09 0.00 10 1012.5
20260505005048 53 0 0.0 0.0 0.00 0.09 0.00 10 1012.6
20260505004044 53 0 0.0 0.0 0.00 0.09 0.00 99 1012.8
20260505003045 53 0 0.0 0.0 0.00 0.09 0.00 99 1012.9
20260505002043 53 0 0.0 0.0 0.00 0.09 0.00 99 1013.0
20260505001047 53 0 0.0 0.0 0.00 0.09 0.00 99 1012.9
20260505000047 53 0 0.0 0.0 0.00 0.09 0.00 99 1012.9
20260504235047 53 0 0.0 0.0 0.00 0.09 0.00 99 1013.0
20260504233046 53 0 0.0 0.0 0.00 0.09 0.00 98 1013.2
20260504232048 53 0 0.0 0.0 0.00 0.09 0.00 98 1013.2
20260504231049 53 0 0.0 0.0 0.00 0.09 0.00 98 1013.4
20260504230047 53 0 0.0 0.0 0.00 0.09 0.00 98 1013.4
20260504225049 53 0 0.0 0.0 0.00 0.09 0.00 98 1013.5
20260504224049 53 0 0.0 0.0 0.00 0.09 0.00 98 1013.5
20260504223047 53 0 0.0 0.0 0.00 0.09 0.00 98 1013.6